Location: Les Moulins
(46.4625°N, 7.1046°E)
Time: 02:35:17
(UTC+00:00)

Daily predictions for brighter satellites

Satellite Brightness Start Highest point End
(mag) Time Altitude Azimuth Time Altitude Azimuth Time Altitude Azimuth
FALCON 9 R/B 4.1 03:21:24 33° SSE 03:21:28 33° SSE 03:33:59 10° ESE
Cosmos 2263 Rocket 4.1 03:26:47 22° NE 03:26:47 22° NE 03:28:40 10° NNE
Cosmos 1634 Rocket 4.5 03:46:09 10° S 03:52:10 57° E 03:58:12 10° NNE
Cosmos 2195 Rocket 4.5 04:01:01 80° ENE 04:01:10 80° E 04:07:28 10° S
USA 234 4.0 03:55:51 10° ENE 04:02:07 46° SE 04:05:30 26° S
ATLAS 5 CENTAUR R/B 4.3 04:15:16 12° N 04:15:16 12° N 04:16:09 10° NNE
COSMO-SKYMED 1 3.1 04:19:24 10° SSE 04:23:38 56° ENE 04:23:43 55° ENE
Cosmos 1733 Rocket 4.5 04:27:19 10° SSE 04:31:16 37° E 04:35:16 10° NNE
PSLV R/B 4.0 04:36:49 10° NNE 04:40:57 75° ESE 04:45:03 10° S
Meteor 1-18 Rocket 4.3 04:41:42 54° WSW 04:41:42 54° WSW 04:46:36 10° S
GEOS 3 Rocket 3.7 04:37:55 10° SE 04:42:58 69° NE 04:44:43 41° NNW
Cosmos 2221 Rocket 3.5 04:44:53 74° SSW 04:44:53 74° SSW 04:48:59 10° S
Cosmos 1500 4.3 04:42:02 10° SSE 04:45:40 44° E 04:49:19 10° NNE
Cosmos 1428 Rocket 4.4 04:42:42 26° NNW 04:46:19 64° W 04:52:31 10° S
ATLAS CENTAUR R/B 2.3 04:45:49 36° NNE 04:46:39 41° NE 04:50:23 10° ESE
SKYMED 3 4.4 04:43:19 10° SSE 04:47:39 83° WSW 04:48:02 73° NW
Cosmos 1515 3.9 04:49:19 60° S 04:49:19 60° S 04:52:30 10° S
NOSS 3-2 (A) 4.1 04:44:33 10° SSW 04:50:06 53° ESE 04:56:21 10° NE
SJ-12 4.0 04:48:01 10° NNE 04:52:09 77° ESE 04:56:14 10° S
Okean O Rocket 2.6 04:51:32 10° NNE 04:55:48 47° E 05:00:04 10° S
Cosmos 332 Rocket 3.8 04:51:56 10° SSW 04:56:51 83° ESE 05:01:46 10° NNE
CENTAUR R/B 4.3 04:53:39 10° S 04:58:46 31° ESE 05:04:35 10° NE
Cosmos 1674 Rocket 4.0 04:57:06 14° N 05:00:48 61° ENE 05:05:03 10° SSE
Cosmos 44 3.4 05:01:17 46° NW 05:01:17 46° NW 05:05:19 10° NNE
USA 238 DEB 3.8 04:56:29 10° SSW 05:03:07 74° SE 05:10:01 10° NE
USA 238 3.8 04:56:36 10° SSW 05:03:13 73° SE 05:10:07 10° NE
Orbus 7S? 3.4 05:04:23 43° ENE 05:04:23 43° ENE 05:06:14 10° NE
Cosmos 2180 Rocket 4.4 04:58:46 10° S 05:04:55 85° W 05:11:09 10° N
Meteor 1-5 Rocket 4.4 04:59:03 10° S 05:04:56 77° E 05:10:43 10° NNE
Meteor 1-11 Rocket 4.2 04:59:29 10° S 05:05:12 65° E 05:11:04 10° NNE
Cosmos 2263 Rocket 3.3 05:08:31 25° NNW 05:08:31 25° NNW 05:12:11 10° N
Cosmos 2026 Rocket 4.4 05:05:54 32° NW 05:07:43 39° W 05:13:28 10° SSW
Meteor 2-4 Rocket 3.5 05:06:02 16° NNW 05:10:19 66° W 05:15:36 10° S
ADEOS Rocket 4.2 05:05:26 10° SE 05:11:37 43° ENE 05:17:15 10° N
SKYMED 2 3.8 05:07:35 10° S 05:11:46 47° W 05:12:22 43° WNW
ALOS 2.1 05:08:35 10° N 05:13:17 79° WNW 05:17:57 10° SSW
Okean 3 3.7 05:15:29 43° WNW 05:16:01 45° W 05:20:02 10° SSW
Cosmos 371 Rocket 3.3 05:11:18 10° SW 05:16:02 54° WNW 05:20:52 10° NNE
Cosmos 1331 Rocket 3.9 05:11:05 10° SSW 05:16:11 63° WNW 05:21:22 10° NNE
Cosmos 1378 Rocket 3.9 05:12:02 10° N 05:16:28 66° E 05:20:52 10° SSE
Cosmos 405 2.8 05:15:56 44° NNW 05:16:54 72° W 05:20:23 10° S
METEOR-M 4.0 05:13:17 10° NNE 05:18:38 77° WNW 05:23:59 10° SSW
FENGYUN 3A 3.5 05:14:06 10° NNE 05:19:30 78° WNW 05:24:52 10° SSW
Cosmos 2279 Rocket 4.1 05:15:43 10° SSW 05:21:44 52° WNW 05:27:50 10° N
Cosmos 1833 Rocket 4.1 05:20:05 10° NNW 05:25:15 35° NE 05:30:23 10° ESE
USA 116 4.3 05:21:02 10° S 05:25:43 58° W 05:30:53 10° NNW
SL-23 DEB 3.7 05:26:56 41° NW 05:27:28 46° NNW 05:30:47 10° ENE
Geosat 4.1 05:22:43 10° SSE 05:27:39 57° WSW 05:30:57 21° NW
Cosmos 1666 3.3 05:25:37 10° S 05:29:20 58° E 05:33:04 10° NNE
CZ-4B DEB 4.2 05:28:02 10° N 05:33:28 57° WNW 05:38:53 10° SSW
Cosmos 1110 Rocket 4.3 05:29:21 10° SW 05:34:13 41° WNW 05:39:09 10° N
Helios 1A Rocket 2.7 05:31:58 10° N 05:35:59 72° WNW 05:40:00 10° SSW
MOS 1-B 4.5 05:30:28 10° N 05:36:02 51° WNW 05:41:35 10° SW
Cosmos 1844 Rocket 2.7 05:31:59 10° SW 05:37:29 58° WNW 05:43:00 10° NNE
USA 234 3.3 05:38:50 10° NE 05:45:17 66° NNW 05:51:45 10° WSW
BREEZE-M DEB (TANK) 3.2 05:45:58 16° SW 05:46:39 18° SSW 05:48:50 10° SSE
ATLAS 3B R/B 3.5 05:41:38 10° SSW 05:48:08 54° ESE 05:54:36 10° NE
SL-24 R/B 4.2 05:45:18 10° S 05:49:27 53° W 05:53:39 10° NNW
Cosmos 1908 Rocket 3.5 05:46:22 10° S 05:50:50 81° W 05:55:19 10° N
Cosmos 1844 3.8 05:45:09 10° SW 05:50:52 59° WNW 05:56:34 10° NNE
CZ-4B R/B 3.3 05:47:05 10° N 05:52:38 60° WNW 05:58:12 10° SSW
IRIDIUM 104 4.3 05:48:06 10° N 05:53:19 72° W 05:58:31 10° S
NOSS 3-2 (C) 3.4 05:48:08 10° SW 05:53:57 89° SE 06:00:35 10° NE
Radarsat Rocket 4.3 05:47:55 10° NNE 05:54:19 87° WNW 06:01:35 10° SSW
Cosmos 1486 Rocket 4.0 05:49:45 10° NNW 05:54:59 63° WSW 06:00:08 10° S
COSMOS 2406 3.2 05:49:37 10° NNW 05:55:21 83° WSW 06:01:01 10° SSE
BREEZE-M DEB (TANK) 2.9 05:52:55 15° W 05:57:28 54° N 06:00:02 10° ENE
COSMO-SKYMED 1 4.1 05:57:29 10° SW 06:00:08 16° W 06:00:56 15° WNW
ATLAS 5 CENTAUR R/B 4.1 05:57:44 10° NNW 06:00:25 14° NNE 06:03:16 10° NE
Cosmos 44 Rocket 3.3 05:57:11 10° SW 06:02:00 60° NW 06:06:45 10° NNE
IRIDIUM 114 4.4 05:57:18 10° N 06:02:27 60° W 06:07:34 10° SSW
Envisat 4.2 05:58:19 10° NNE 06:03:14 47° E 06:08:07 10° S
AQUARIUS 4.3 05:59:01 10° NNE 06:03:33 81° ESE 06:08:02 10° S
CZ-2C R/B 4.1 05:59:40 10° SSE 06:04:25 73° ENE 06:09:12 10° N
Nadezhda 2 Rocket 4.4 06:00:39 10° N 06:06:47 85° W 06:12:53 10° S
Cosmos 304 Rocket 4.1 06:02:42 10° SW 06:07:12 40° WNW 06:11:46 10° N
H-2A R/B 2.6 06:04:48 10° N 06:08:34 72° WNW 06:12:21 10° SSW
Cosmos 1733 Rocket 4.2 06:05:49 10° WSW 06:09:12 22° WNW 06:12:37 10° NNW
CORIOLIS 4.4 06:03:51 10° NNE 06:09:17 74° ESE 06:14:39 10° S
Cosmos 1743 2.9 06:07:48 10° S 06:11:36 78° E 06:15:26 10° NNE
BREEZE-M DEB (TANK) 3.9 06:09:45 10° SW 06:12:26 63° SSE 06:18:33 10° ENE
YAOGAN 6 4.0 06:11:07 10° NNE 06:14:41 44° E 06:18:15 10° S
EP 1 4.4 06:11:59 10° SW 06:14:54 81° SE 06:17:30 10° NE
Cosmos 2082 Rocket 2.9 06:09:35 10° NNW 06:15:07 53° ENE 06:20:36 10° SE
USA 81 4.3 06:11:17 10° NNW 06:16:20 47° W 06:21:21 10° SSW
CZ-4 R/B 3.0 06:20:49 10° NNE 06:24:32 38° E 06:28:16 10° SSE
ATLAS CENTAUR R/B 2.6 06:22:02 10° WNW 06:25:19 23° WSW 06:28:24 10° SSW
Cosmos 968 Rocket 3.7 06:23:53 10° NNW 06:28:51 50° WSW 06:33:46 10° S
Cosmos 1536 4.1 06:25:57 10° WSW 06:29:05 21° WNW 06:32:13 10° NNW
Okean O Rocket 2.9 06:28:36 10° NNW 06:31:51 20° WNW 06:35:05 10° WSW
Meteor 1-4 Rocket 3.1 06:29:21 10° N 06:33:03 62° ENE 06:36:39 10° SSE
Feng Yun 1-1 Rocket 4.3 06:30:12 10° N 06:35:47 64° WNW 06:41:30 10° SSW
